Time,TemperatureF,DewpointF,PressureIn,WindDirection,WindDirectionDegrees,WindSpeedMPH,WindSpeedGustMPH,Humidity,HourlyPrecipIn,Conditions,Clouds,dailyrainin,SolarRadiationWatts/m^2,SoftwareType,DateUTC
2013-08-07 00:00:00,66.3,64.8,30.06,SSE,160,0.0,0.0,95,0.00,,,0.00,0,Wunderground v.1.15,2013-08-07 04:00:00,
2013-08-07 00:30:00,66.0,64.5,30.05,SSE,160,0.0,0.0,95,0.00,,,0.00,0,Wunderground v.1.15,2013-08-07 04:30:00,
2013-08-07 01:00:00,65.7,64.5,30.05,SSE,160,0.0,0.0,96,0.00,,,0.00,0,Wunderground v.1.15,2013-08-07 05:00:00,
2013-08-07 01:30:00,65.5,64.3,30.04,SSE,160,0.0,0.0,96,0.00,,,0.00,0,Wunderground v.1.15,2013-08-07 05:30:00,
2013-08-07 02:00:00,65.6,64.4,30.03,SSE,160,0.0,0.0,96,0.00,,,0.00,0,Wunderground v.1.15,2013-08-07 06:00:00,
2013-08-07 02:30:00,65.7,64.5,30.03,SSE,160,0.0,0.0,96,0.00,,,0.00,0,Wunderground v.1.15,2013-08-07 06:30:00,
2013-08-07 03:00:00,65.9,64.7,30.03,SSE,160,0.0,0.0,96,0.00,,,0.00,0,Wunderground v.1.15,2013-08-07 07:00:00,
2013-08-07 03:30:00,65.7,64.5,30.03,SSE,160,0.0,0.0,96,0.00,,,0.00,0,Wunderground v.1.15,2013-08-07 07:30:00,
2013-08-07 04:00:00,65.4,64.2,30.04,SSE,160,0.0,0.0,96,0.00,,,0.00,0,Wunderground v.1.15,2013-08-07 08:00:00,
2013-08-07 04:30:00,65.2,64.0,30.04,SSE,160,0.0,0.0,96,0.00,,,0.00,0,Wunderground v.1.15,2013-08-07 08:30:00,
2013-08-07 05:00:00,64.9,63.7,30.05,SSE,160,0.0,0.0,96,0.00,,,0.00,0,Wunderground v.1.15,2013-08-07 09:00:00,
2013-08-07 05:30:00,64.8,63.6,30.05,SSE,160,0.0,0.0,96,0.00,,,0.00,0,Wunderground v.1.15,2013-08-07 09:30:00,
2013-08-07 06:00:00,64.5,63.6,30.06,SSE,160,0.0,0.0,97,0.00,,,0.00,0,Wunderground v.1.15,2013-08-07 10:00:00,
2013-08-07 06:30:00,64.4,63.2,30.06,SSE,160,0.0,0.0,96,0.00,,,0.00,0,Wunderground v.1.15,2013-08-07 10:30:00,
2013-08-07 07:00:00,64.5,63.6,30.07,SSE,160,0.0,0.0,97,0.00,,,0.00,16,Wunderground v.1.15,2013-08-07 11:00:00,
2013-08-07 07:30:00,65.5,64.6,30.07,SSE,160,0.0,0.0,97,0.00,,,0.00,25,Wunderground v.1.15,2013-08-07 11:30:00,
2013-08-07 08:00:00,67.9,67.3,30.07,SSE,160,0.0,0.0,98,0.00,,,0.00,40,Wunderground v.1.15,2013-08-07 12:00:00,
2013-08-07 08:30:00,71.3,70.7,30.07,SSE,160,0.0,0.0,98,0.00,,,0.00,311,Wunderground v.1.15,2013-08-07 12:30:00,
2013-08-07 09:00:00,75.4,72.9,30.07,SSE,160,0.0,0.0,92,0.00,,,0.00,436,Wunderground v.1.15,2013-08-07 13:00:00,
2013-08-07 09:30:00,80.8,74.0,30.08,SSE,160,0.0,0.0,80,0.00,,,0.00,540,Wunderground v.1.15,2013-08-07 13:30:00,
2013-08-07 10:00:00,83.2,73.6,30.07,SSE,160,0.0,0.0,73,0.00,,,0.00,629,Wunderground v.1.15,2013-08-07 14:00:00,
2013-08-07 10:30:00,84.2,71.6,30.07,SSE,157,1.0,1.0,66,0.00,,,0.00,288,Wunderground v.1.15,2013-08-07 14:30:00,
2013-08-07 11:00:00,85.7,72.6,30.08,SE,128,2.0,4.0,65,0.00,,,0.00,816,Wunderground v.1.15,2013-08-07 15:00:00,
2013-08-07 11:30:00,86.6,72.5,30.07,ESE,117,1.0,5.0,63,0.00,,,0.00,970,Wunderground v.1.15,2013-08-07 15:30:00,
2013-08-07 12:00:00,87.0,70.9,30.08,SE,139,3.0,3.0,59,0.00,,,0.00,1053,Wunderground v.1.15,2013-08-07 16:00:00,
2013-08-07 12:30:00,87.0,70.4,30.07,SSE,148,3.0,3.0,58,0.00,,,0.00,290,Wunderground v.1.15,2013-08-07 16:30:00,
2013-08-07 13:00:00,88.4,72.2,30.06,South,184,1.0,1.0,59,0.00,,,0.00,900,Wunderground v.1.15,2013-08-07 17:00:00,
2013-08-07 13:30:00,87.5,70.4,30.07,SE,134,3.0,3.0,57,0.00,,,0.00,654,Wunderground v.1.15,2013-08-07 17:30:00,
2013-08-07 14:00:00,86.5,71.0,30.06,SSE,168,3.0,3.0,60,0.00,,,0.00,497,Wunderground v.1.15,2013-08-07 18:00:00,
2013-08-07 14:30:00,86.3,71.7,30.06,South,175,2.0,3.0,62,0.00,,,0.00,418,Wunderground v.1.15,2013-08-07 18:30:00,
2013-08-07 15:00:00,85.7,71.2,30.06,SSE,151,2.0,4.0,62,0.00,,,0.00,466,Wunderground v.1.15,2013-08-07 19:00:00,
2013-08-07 15:30:00,86.7,72.6,30.04,SSE,156,2.0,3.0,63,0.00,,,0.00,615,Wunderground v.1.15,2013-08-07 19:30:00,
2013-08-07 16:00:00,85.0,71.0,30.03,SSW,195,3.0,3.0,63,0.00,,,0.00,316,Wunderground v.1.15,2013-08-07 20:00:00,
2013-08-07 16:30:00,83.1,72.3,30.02,South,170,2.0,2.0,70,0.00,,,0.00,200,Wunderground v.1.15,2013-08-07 20:30:00,
2013-08-07 17:00:00,84.7,73.0,30.03,East,92,2.0,2.0,68,0.00,,,0.00,591,Wunderground v.1.15,2013-08-07 21:00:00,
2013-08-07 17:30:00,84.8,72.2,30.02,East,94,2.0,2.0,66,0.00,,,0.00,174,Wunderground v.1.15,2013-08-07 21:30:00,
2013-08-07 18:00:00,83.2,72.8,30.02,South,171,3.0,3.0,71,0.00,,,0.00,95,Wunderground v.1.15,2013-08-07 22:00:00,
2013-08-07 18:30:00,81.8,72.7,30.01,ESE,115,3.0,3.0,74,0.00,,,0.00,83,Wunderground v.1.15,2013-08-07 22:30:00,
2013-08-07 19:00:00,81.0,73.1,30.01,SE,140,1.0,1.0,77,0.00,,,0.00,72,Wunderground v.1.15,2013-08-07 23:00:00,
2013-08-07 19:30:00,79.1,73.1,30.01,SSE,163,0.0,0.0,82,0.00,,,0.00,28,Wunderground v.1.15,2013-08-07 23:30:00,
2013-08-07 20:00:00,77.0,72.8,30.02,SSE,163,0.0,0.0,87,0.00,,,0.00,7,Wunderground v.1.15,2013-08-08 00:00:00,
2013-08-07 20:30:00,74.9,71.8,30.03,SSE,163,0.0,0.0,90,0.00,,,0.00,0,Wunderground v.1.15,2013-08-08 00:30:00,
2013-08-07 21:00:00,73.6,71.1,30.03,SSE,163,0.0,0.0,92,0.00,,,0.00,0,Wunderground v.1.15,2013-08-08 01:00:00,
2013-08-07 21:30:00,72.6,70.5,30.04,SSE,163,0.0,0.0,93,0.00,,,0.00,0,Wunderground v.1.15,2013-08-08 01:30:00,
2013-08-07 22:00:00,71.8,70.0,30.04,SSE,163,0.0,0.0,94,0.00,,,0.00,0,Wunderground v.1.15,2013-08-08 02:00:00,
2013-08-07 22:30:00,71.2,69.4,30.04,SSE,163,0.0,0.0,94,0.00,,,0.00,0,Wunderground v.1.15,2013-08-08 02:30:00,
2013-08-07 23:00:00,70.8,69.3,30.04,SSE,163,0.0,0.0,95,0.00,,,0.00,0,Wunderground v.1.15,2013-08-08 03:00:00,
2013-08-07 23:30:00,70.5,69.0,30.04,SSE,163,0.0,0.0,95,0.00,,,0.00,0,Wunderground v.1.15,2013-08-08 03:30:00,